Погода в Стокгольме

Швеция     59˚19′29″N   18˚04′16″E
темп.,
°C
ветер,
м/с
пор.,
м/с
влажн.,
%
обл.,
%
осадки,
мм/ч
давл.,
гПа
погр.,
м
5 декабря, сб
сб501:00+5˚ююв4988100 0.6 1005565
04:00+6˚ююв3988100 0.0 1005565
07:00+5˚ююв3888100 0.1 1006532
10:00+6˚ююв388989 0.0 1008554
13:00+6˚ююв388184 0.1 1009544
16:00+6˚юв41090100 0.0 1008527
19:00+7˚ююв41087100 0.1 1009605
22:00+7˚ююв41187100 0.0 1009652
6 декабря, вс
вс601:00+7˚ююв51189100 0.0 1011565
04:00+7˚ю51091100 0.0 1011615
07:00+7˚ююв4992100 0.0 1012514
10:00+7˚ююв4990100 0.0 1014600
13:00+7˚ююв51089100 0.0 1014662
16:00+7˚ююв61187100 0.0 1014765
19:00+7˚ююв61286100 0.0 1015841
22:00+7˚ююв61184100 0.0 1015831
7 декабря, пн
пн701:00+7˚ююв51185100 0.0 1016643
04:00+6˚ююв61185100 0.0 1016673
07:00+5˚юв6118298 0.1 1016785
10:00+4˚ююв61175100 0.0 1017907
13:00+4˚юв61171100 0.0 1017917
16:00+3˚ююв61170100 0.0 1017945
19:00+4˚ююв61071100 0.0 1017929
22:00+4˚ююв61070100 0.0 1018922
8 декабря, вт
вт801:00+3˚ююв597299 0.0 1019922
04:00+3˚юв5973100 0.0 1019988
07:00+3˚юв5974100 0.1 10201010
10:00+2˚юв5874100 0.1 10201041
13:00+2˚юв5875100 0.1 10211049
16:00+2˚юв5879100 0.1 1021924
19:00+1˚юв5881100 0.3 1021896
22:00+2˚юв4879100 0.1 1021876
9 декабря, ср
ср901:00+2˚ююв4989100 0.2 1021697
04:00+2˚ююв488398 0.1 1021654
07:00+2˚ююв369698 0.1 1021410
10:00+2˚юв4792100 0.2 1022456
13:00+3˚ююв4793100 0.3 1022455
16:00+2˚ююв3795100 0.2 1022453
19:00+3˚юв4788100 0.3 1022551
22:00+2˚юв3685100 0.1 1022476